FENGYUN 1C DEB

Satellite information

Favourite Embed

Satellite Type and Status

DEBRISIN ORBIT

Key statistics

Satellite FENGYUN 1C DEB at a glance.

Uptime

9715

Days in orbit

Revolutions

≈ 13.4

Per day

Orbit

SSO

Sun Synchronous Orbit

Inclination

97.8

Latest

Satellite identification and parameters

Extended collection of information and parameters for FENGYUN 1C DEB.

Object identification

Identified? True

Debris? True

Object name: FENGYUN 1C DEB

International designator: 1999-025EPV

Object number (NORAD): 38124

Object ID (CCSDS): 38124

Country: PEOPLES REPUBLIC OF CHINA (PRC)

Current information (Y/N): Y

RCS size: SMALL

Orbital parameters

Period: 107.39 minutes

Inclination: 97.805 deg

SMA: 7484.033 km

Apoapsis: 1373.108 km

Periapsis: 838.687 km

RAAN: 279.4801 deg

Eccentricy: 0.03570409

Argument of periapsis: 12.4947 deg

Mean anomaly: 348.4759 deg

Mean motion: 13.40908773 rev/day

Mean motion (dot): 0.00000608 rev/day2

B* drag term: 0.00079426358 1/REarth

Two-line elements (TLE)

Creation date: Nov. 17, 2025, 5:28 p.m.

Reference frame: TEME

Reference center: EARTH

Epoch: Nov. 17, 2025, 2:51 a.m. UTC

TLE line 0: 0 FENGYUN 1C DEB

TLE line 1: 1 38124U 99025EPV 25321.11895826 .00000608 00000-0 79426-3 0 9991

TLE line 2: 2 38124 97.8050 279.4801 0357041 12.4947 348.4759 13.40908773542381

Live tracking on map

Real-time ground track for satellite FENGYUN 1C DEB.

In-orbit conjunctions

A list of the most updated potential collisions computed for object FENGYUN 1C DEB.

Target Orbit TCA Probability of collision Miss distance Type
CZ-6A DEB LEO 2024-11-09 22:48:39 0.0002489849 993.0 (m) DEBRIS

Associated space launch

Chinese polar orbiting meteorological satellite

FENGYUN 1C DEB was lifted into orbit during the mission ‘Long March 4B | Feng Yun 1C’, on board a Long March 4B space rocket.

The launch took place on May 10, 1999, 1:33 a.m. from Launch Complex 7.

For more information about the launch, click the button.

Launch to space Long March 4B | Feng Yun 1C
Long March 4B | Feng Yun 1C

Agency: N/A

Status: Launch Successful

Launch date: May 10, 1999, 1:33 a.m. UTC

Rocket: Long March 4B

Launch pad: Launch Complex 7

Location: Taiyuan Satellite Launch Center, People's Republic of China

...

Latest news about this satellite

There are no fresh news available about this satellite. Check back as we update our databases every day.


Newsletter sign-up

Weekly statistics, charts and insights to help you stay on top of the space industry.